period_start,C,m1,H,J0,J1,J2,J3,J4,J5,JA,JB,JC,JD,JJ,JK,JN,#
2018-06-04 00:00:04,0.02,0.25,0.00,25.32,29.18,32.21,13.80,46.39,1009.29,2020.58,3313.02,3007.01,3458.84,600.19,587.43,15.57,0000 0000 0000 0000 000000
2018-06-04 00:05:05,-0.02,0.25,0.00,25.33,29.20,32.23,13.75,46.30,1009.29,2020.27,3312.84,3006.98,3458.09,599.85,586.96,15.62,0000 0000 0000 0000 000000
2018-06-04 00:10:06,0.01,0.25,0.00,25.34,29.20,32.25,13.74,46.28,1009.29,2020.06,3312.11,3006.66,3457.94,600.01,587.12,15.67,0000 0000 0000 0000 000000
2018-06-04 00:15:08,0.02,0.25,0.00,25.35,29.21,32.26,13.76,46.38,1009.29,2020.02,3311.95,3006.04,3457.16,600.26,587.37,15.72,0000 0000 0000 0000 000000
2018-06-04 00:20:09,0.01,0.25,0.00,25.35,29.22,32.29,13.75,46.48,1009.29,2020.02,3311.18,3005.99,3457.00,599.78,586.90,15.77,0000 0000 0000 0000 000000
2018-06-04 00:25:10,0.01,0.25,0.00,25.36,29.22,32.27,13.65,46.34,1009.29,2020.01,3310.97,3005.87,3456.82,600.30,587.40,15.82,0000 0000 0000 0000 000000
2018-06-04 00:30:11,0.04,0.25,0.00,25.38,29.23,32.29,13.79,46.47,1009.29,2020.03,3310.36,3005.21,3456.16,600.01,587.02,15.87,0000 0000 0000 0000 000000
2018-06-04 00:35:13,0.00,0.25,0.00,25.40,29.25,32.30,13.80,46.38,1009.29,2020.00,3309.99,3005.00,3455.99,600.45,587.48,15.92,0000 0000 0000 0000 000000
2018-06-04 00:40:14,0.01,0.25,0.00,25.42,29.25,32.31,13.67,46.34,1009.30,2020.00,3309.46,3004.96,3455.81,599.70,586.65,15.97,0000 0000 0000 0000 000000
2018-06-04 00:45:15,0.03,0.26,0.00,25.44,29.26,32.30,13.66,46.31,1009.30,2020.00,3309.01,3004.25,3455.08,599.84,586.79,16.02,0000 0000 0000 0000 000000
2018-06-04 00:50:16,0.01,0.26,0.00,25.44,29.27,32.34,13.80,46.25,1009.30,2020.00,3308.62,3004.01,3454.99,600.34,587.11,16.07,0000 0000 0000 0000 000000
2018-06-04 00:55:17,0.01,0.26,0.00,25.45,29.28,32.33,13.64,46.29,1009.30,2020.00,3308.06,3004.00,3454.78,599.38,586.29,16.12,0000 0000 0000 0000 000000
2018-06-04 01:00:19,0.02,0.26,0.00,25.46,29.30,32.34,13.73,46.25,1009.29,2020.00,3307.98,3003.77,3454.10,600.21,586.96,16.17,0000 0000 0000 0000 000000
2018-06-04 01:05:20,0.02,0.26,0.00,25.47,29.30,32.35,13.74,46.41,1009.30,2020.00,3307.32,3003.16,3453.99,599.87,586.74,16.22,0000 0000 0000 0000 000000
2018-06-04 01:10:22,0.00,0.26,0.00,25.48,29.31,32.35,13.73,46.29,1009.29,2020.00,3307.01,3003.01,3453.85,600.09,586.87,16.28,0000 0000 0000 0000 000000
2018-06-04 01:15:23,0.01,0.26,0.00,25.50,29.32,32.37,13.72,46.29,1009.30,2020.00,3306.85,3002.99,3453.16,600.09,586.83,16.33,0000 0000 0000 0000 000000
2018-06-04 01:20:24,0.01,0.26,0.00,25.52,29.34,32.38,13.71,46.27,1009.30,2020.00,3306.20,3002.89,3453.00,599.46,586.29,16.38,0000 0000 0000 0000 000000
2018-06-04 01:25:26,0.02,0.26,0.00,25.54,29.35,32.40,13.73,46.30,1009.32,2020.00,3306.01,3002.29,3452.98,600.07,586.76,16.43,0000 0000 0000 0000 000000
2018-06-04 01:30:27,0.02,0.26,0.00,25.56,29.36,32.41,13.78,46.32,1009.37,2020.00,3305.71,3002.02,3452.45,600.33,587.02,16.48,0000 0000 0000 0000 000000
2018-06-04 01:35:28,0.01,0.27,0.00,25.57,29.37,32.43,13.73,46.27,1009.36,2019.98,3305.03,3001.95,3452.01,600.09,586.74,16.53,0000 0000 0000 0000 000000
2018-06-04 01:40:30,0.02,0.27,0.00,25.60,29.40,32.43,13.74,46.27,1009.31,2019.98,3304.88,3001.47,3451.90,599.87,586.44,16.58,0000 0000 0000 0000 000000
2018-06-04 01:45:31,0.03,0.27,0.00,25.62,29.40,32.44,13.65,46.32,1009.33,2019.97,3304.13,3001.02,3451.15,599.72,586.32,16.63,0000 0000 0000 0000 000000
2018-06-04 01:50:32,-0.00,0.27,0.00,25.63,29.42,32.46,13.71,46.44,1009.32,2019.93,3303.99,3000.99,3450.99,600.05,586.66,16.68,0000 0000 0000 0000 000000
2018-06-04 01:55:33,0.01,0.27,0.00,25.62,29.44,32.49,13.70,46.40,1009.31,2019.82,3303.47,3000.70,3450.72,599.76,586.20,16.73,0000 0000 0000 0000 000000
2018-06-04 02:00:34,-0.01,0.27,0.00,25.62,29.45,32.50,13.75,46.40,1009.31,2019.53,3303.01,3000.06,3450.07,600.06,586.59,16.78,0000 0000 0000 0000 000000
2018-06-04 02:05:36,-0.01,0.27,0.00,25.64,29.47,32.51,13.70,46.41,1009.31,2019.17,3302.52,2999.99,3449.94,599.85,586.27,16.83,0000 0000 0000 0000 000000
2018-06-04 02:10:37,0.01,0.27,0.00,25.66,29.48,32.54,13.76,46.35,1009.31,2019.11,3302.01,2999.84,3449.27,600.26,586.77,16.88,0000 0000 0000 0000 000000
2018-06-04 02:15:39,0.01,0.27,0.00,25.69,29.50,32.55,13.75,46.39,1009.31,2019.02,3301.94,2999.16,3449.00,599.77,586.30,16.93,0000 0000 0000 0000 000000
2018-06-04 02:20:40,0.01,0.27,0.00,25.71,29.51,32.57,13.66,46.39,1009.32,2019.01,3301.32,2999.00,3448.94,599.77,586.25,16.98,0000 0000 0000 0000 000000
2018-06-04 02:25:41,0.01,0.27,0.00,25.73,29.52,32.56,13.78,46.42,1009.31,2019.00,3301.00,2998.99,3448.36,600.10,586.55,17.03,0000 0000 0000 0000 000000
2018-06-04 02:30:43,0.02,0.27,0.00,25.75,29.55,32.60,13.63,46.42,1009.30,2019.00,3300.71,2998.65,3448.01,599.79,586.12,17.08,0000 0000 0000 0000 000000
2018-06-04 02:35:44,0.02,0.27,0.00,25.80,29.55,32.58,13.70,46.41,1009.35,2019.00,3300.04,2998.05,3447.95,599.81,586.12,17.13,0000 0000 0000 0000 000000
2018-06-04 02:40:45,0.01,0.27,0.00,25.85,29.57,32.59,13.75,46.44,1009.56,2019.00,3299.95,2997.99,3447.21,600.24,586.58,17.18,0000 0000 0000 0000 000000
2018-06-04 02:45:46,0.02,0.28,0.00,25.88,29.59,32.60,13.64,46.23,1009.74,2018.99,3299.23,2997.83,3446.99,599.82,586.22,17.23,0000 0000 0000 0000 000000
2018-06-04 02:50:48,0.01,0.28,0.00,25.91,29.60,32.61,13.74,46.23,1009.69,2018.98,3299.00,2997.16,3446.81,600.22,586.63,17.28,0000 0000 0000 0000 000000
2018-06-04 02:55:49,0.02,0.28,0.00,25.93,29.62,32.63,13.65,46.33,1009.75,2018.93,3298.39,2997.00,3446.07,600.16,586.30,17.33,0000 0000 0000 0000 000000
2018-06-04 03:00:50,-0.00,0.28,0.00,25.95,29.64,32.64,13.63,46.26,1009.77,2018.88,3298.01,2996.94,3445.99,599.75,585.92,17.38,0000 0000 0000 0000 000000
2018-06-04 03:05:51,0.02,0.28,0.00,25.98,29.66,32.65,13.63,46.23,1009.78,2018.70,3297.69,2996.34,3445.38,599.92,586.11,17.43,0000 0000 0000 0000 000000
2018-06-04 03:10:53,-0.02,0.28,0.00,26.00,29.68,32.66,13.74,46.22,1009.78,2018.29,3297.04,2996.00,3445.01,600.16,586.31,17.48,0000 0000 0000 0000 000000
2018-06-04 03:15:54,-0.01,0.28,0.00,26.02,29.70,32.69,13.70,46.31,1009.78,2018.12,3296.96,2995.97,3444.87,599.64,585.59,17.53,0000 0000 0000 0000 000000
2018-06-04 03:20:55,0.03,0.28,0.00,26.06,29.71,32.72,13.68,46.24,1009.79,2018.04,3296.20,2995.55,3444.14,600.04,585.97,17.58,0000 0000 0000 0000 000000
2018-06-04 03:25:57,0.01,0.28,0.00,26.06,29.74,32.73,13.74,46.35,1009.80,2018.02,3296.00,2995.04,3444.00,600.03,586.02,17.63,0000 0000 0000 0000 000000
2018-06-04 03:30:58,0.01,0.28,0.00,26.05,29.76,32.76,13.67,46.26,1009.81,2018.03,3295.62,2995.00,3443.81,600.02,585.97,17.68,0000 0000 0000 0000 000000
2018-06-04 03:35:59,0.02,0.28,0.00,26.07,29.77,32.79,13.65,46.38,1009.81,2018.01,3295.02,2994.77,3443.07,600.01,585.96,17.73,0000 0000 0000 0000 000000
2018-06-04 03:41:00,0.02,0.28,0.00,26.08,29.79,32.80,13.70,46.28,1009.80,2018.00,3294.59,2994.08,3442.97,599.58,585.54,17.78,0000 0000 0000 0000 000000
2018-06-04 03:46:02,0.01,0.28,0.00,26.10,29.81,32.86,13.66,46.31,1009.81,2018.00,3294.02,2994.00,3442.41,599.81,585.65,17.83,0000 0000 0000 0000 000000
2018-06-04 03:51:03,0.00,0.28,0.00,26.12,29.84,32.90,13.68,46.27,1009.82,2018.00,3293.88,2993.87,3442.01,599.86,585.72,17.88,0000 0000 0000 0000 000000
2018-06-04 03:56:04,0.04,0.29,0.00,26.15,29.86,32.89,13.73,46.26,1009.83,2017.98,3293.09,2993.09,3441.67,599.96,585.78,17.93,0000 0000 0000 0000 000000
2018-06-04 04:01:05,0.00,0.29,0.00,26.16,29.88,32.89,13.70,46.41,1009.85,2017.91,3292.95,2993.00,3441.03,600.07,585.92,17.98,0000 0000 0000 0000 000000
2018-06-04 04:06:06,-0.00,0.29,0.00,26.19,29.91,32.95,13.77,46.33,1009.81,2017.75,3292.45,2992.91,3440.99,600.10,585.84,18.03,0000 0000 0000 0000 000000
2018-06-04 04:11:08,-0.00,0.29,0.00,26.20,29.93,32.96,13.66,46.27,1009.91,2017.42,3291.99,2992.25,3440.40,599.70,585.55,18.08,0000 0000 0000 0000 000000
2018-06-04 04:16:08,-0.00,0.29,0.00,26.23,29.95,32.97,13.64,46.17,1009.92,2017.06,3291.31,2991.99,3439.99,600.02,585.66,18.13,0000 0000 0000 0000 000000
2018-06-04 04:21:10,0.02,0.29,0.00,26.25,29.97,33.01,13.73,46.14,1009.94,2017.01,3290.98,2991.63,3439.45,600.12,585.86,18.18,0000 0000 0000 0000 000000
2018-06-04 04:26:11,0.02,0.29,0.00,26.28,30.00,33.03,13.68,46.19,1010.15,2017.01,3290.30,2991.07,3439.01,600.17,585.89,18.23,0000 0000 0000 0000 000000
2018-06-04 04:31:12,0.00,0.29,0.00,26.31,30.01,33.05,13.70,46.28,1010.14,2017.00,3289.99,2990.98,3438.78,600.03,585.80,18.28,0000 0000 0000 0000 000000
2018-06-04 04:36:14,0.04,0.29,0.00,26.33,30.04,33.05,13.67,46.36,1010.15,2017.00,3289.33,2990.53,3438.07,600.03,585.74,18.33,0000 0000 0000 0000 000000
2018-06-04 04:41:15,0.01,0.29,0.00,26.36,30.06,33.07,13.66,46.35,1010.19,2017.00,3288.93,2990.01,3437.86,599.57,585.20,18.38,0000 0000 0000 0000 000000
2018-06-04 04:46:17,0.03,0.29,0.00,26.39,30.08,33.09,13.65,46.33,1010.25,2016.99,3288.12,2989.78,3437.08,599.97,585.57,18.43,0000 0000 0000 0000 000000
2018-06-04 04:51:18,0.03,0.29,0.00,26.43,30.10,33.11,13.59,46.35,1010.27,2016.94,3287.58,2989.07,3436.67,599.88,585.42,18.48,0000 0000 0000 0000 000000
2018-06-04 04:56:19,0.01,0.30,0.00,26.46,30.13,33.12,13.68,46.40,1010.27,2016.86,3287.00,2988.93,3436.03,599.95,585.40,18.53,0000 0000 0000 0000 000000
2018-06-04 05:01:21,0.03,0.30,0.00,26.47,30.15,33.14,13.67,46.38,1010.27,2016.54,3286.29,2988.22,3435.65,600.18,585.63,18.58,0000 0000 0000 0000 000000
2018-06-04 05:06:22,0.01,0.30,0.00,26.50,30.17,33.17,13.72,46.47,1010.27,2016.57,3285.97,2988.01,3435.04,600.27,585.75,18.63,0000 0000 0000 0000 000000
2018-06-04 05:11:23,-0.00,0.30,0.00,26.52,30.20,33.20,13.67,46.32,1010.28,2016.29,3285.22,2987.66,3434.61,600.00,585.34,18.68,0000 0000 0000 0000 000000
2018-06-04 05:16:24,0.02,0.30,0.00,26.54,30.22,33.22,13.70,46.38,1010.31,2016.06,3284.52,2987.01,3434.00,600.34,585.70,18.73,0000 0000 0000 0000 000000
2018-06-04 05:21:26,0.04,0.30,0.00,26.57,30.25,33.22,13.66,46.41,1010.50,2016.00,3283.79,2986.56,3433.20,599.80,585.20,18.78,0000 0000 0000 0000 000000
2018-06-04 05:26:27,0.03,0.30,0.00,26.59,30.27,33.25,13.67,46.40,1010.73,2016.00,3282.99,2986.00,3432.60,599.82,585.33,18.83,0000 0000 0000 0000 000000
2018-06-04 05:31:28,0.04,0.30,0.00,26.62,30.30,33.30,13.65,46.27,1010.76,2015.99,3282.17,2985.44,3432.00,599.65,585.18,18.88,0000 0000 0000 0000 000000
2018-06-04 05:36:29,0.02,0.30,0.00,26.64,30.32,33.30,13.66,46.38,1010.76,2015.98,3281.68,2985.00,3431.42,599.82,585.23,18.93,0000 0000 0000 0000 000000
2018-06-04 05:41:30,0.03,0.31,0.00,26.68,30.35,33.32,13.72,46.32,1010.76,2015.97,3280.95,2984.56,3430.83,600.10,585.42,18.98,0000 0000 0000 0000 000000
2018-06-04 05:46:32,0.02,0.31,0.00,26.71,30.37,33.33,13.72,46.31,1010.76,2015.87,3280.10,2984.01,3430.04,599.90,585.23,19.03,0000 0000 0000 0000 000000
2018-06-04 05:51:32,0.00,0.31,0.00,26.73,30.40,33.37,13.65,46.32,1010.76,2015.49,3279.37,2983.49,3429.41,600.24,585.57,19.08,0000 0000 0000 0000 000000
2018-06-04 05:56:34,0.00,0.31,0.00,26.76,30.42,33.38,13.74,46.30,1010.77,2015.18,3278.71,2982.99,3428.84,599.96,585.14,19.13,0000 0000 0000 0000 000000
2018-06-04 06:01:34,0.03,0.31,0.00,26.79,30.45,33.41,13.68,46.24,1010.77,2015.03,3277.98,2982.47,3428.07,600.14,585.25,19.18,0000 0000 0000 0000 000000
2018-06-04 06:06:35,0.02,0.31,0.00,26.83,30.47,33.44,13.72,46.20,1010.77,2015.01,3277.16,2982.01,3427.64,600.23,585.27,19.23,0000 0000 0000 0000 000000
2018-06-04 06:11:37,0.04,0.31,0.00,26.87,30.50,33.44,13.72,46.24,1010.77,2015.00,3276.33,2981.36,3426.90,599.82,584.80,19.28,0000 0000 0000 0000 000000
2018-06-04 06:16:38,0.02,0.31,0.00,26.92,30.52,33.44,13.64,46.23,1010.78,2015.00,3275.74,2980.99,3426.09,600.33,585.21,19.33,0000 0000 0000 0000 000000
2018-06-04 06:21:40,0.03,0.32,0.00,26.96,30.56,33.47,13.64,46.23,1010.85,2014.96,3274.99,2980.34,3425.66,599.81,584.65,19.38,0000 0000 0000 0000 000000
2018-06-04 06:26:41,0.01,0.32,0.00,27.00,30.59,33.49,13.63,46.25,1010.94,2014.89,3274.22,2979.99,3425.00,599.93,584.72,19.43,0000 0000 0000 0000 000000
2018-06-04 06:31:42,0.03,0.32,0.00,27.03,30.61,33.53,13.64,46.30,1011.18,2014.75,3273.67,2979.41,3424.42,599.87,584.81,19.48,0000 0000 0000 0000 000000
2018-06-04 06:36:43,-0.04,0.32,0.00,27.08,30.65,33.55,13.69,46.33,1011.24,2014.25,3272.94,2978.97,3423.89,600.33,585.16,19.53,0000 0000 0000 0000 000000
2018-06-04 06:41:45,0.04,0.32,0.00,27.13,30.68,33.57,13.61,46.19,1011.24,2014.03,3272.17,2978.41,3423.08,599.29,584.11,19.58,0000 0000 0000 0000 000000
2018-06-04 06:46:46,0.01,0.32,0.00,27.16,30.71,33.59,13.70,46.24,1011.24,2014.00,3271.91,2978.01,3422.72,600.17,584.89,19.63,0000 0000 0000 0000 000000
2018-06-04 06:51:47,0.04,0.32,0.00,27.23,30.75,33.60,13.67,46.23,1011.25,2014.00,3271.14,2977.60,3422.05,599.91,584.48,19.68,0000 0000 0000 0000 000000
2018-06-04 06:56:48,0.02,0.32,0.00,27.27,30.78,33.58,13.59,46.29,1011.26,2013.99,3270.66,2977.02,3421.58,599.94,584.34,19.73,0000 0000 0000 0000 000000
2018-06-04 07:01:50,-0.00,0.32,0.00,27.32,30.81,33.59,13.55,46.23,1011.29,2013.83,3270.01,2976.85,3421.01,599.86,584.32,19.78,0000 0000 0000 0000 000000
2018-06-04 07:06:51,-0.01,0.32,0.00,27.37,30.85,33.61,13.65,46.24,1011.53,2013.35,3269.70,2976.11,3420.59,600.04,584.45,19.83,0000 0000 0000 0000 000000
2018-06-04 07:11:52,-0.00,0.32,0.00,27.43,30.89,33.58,13.63,46.26,1011.70,2013.06,3269.09,2976.00,3420.06,600.00,584.43,19.88,0000 0000 0000 0000 000000
2018-06-04 07:16:53,0.01,0.32,0.00,27.48,30.93,33.58,13.69,46.27,1011.73,2013.02,3268.93,2975.81,3419.95,600.18,584.44,19.93,0000 0000 0000 0000 000000
2018-06-04 07:21:54,0.04,0.33,0.00,27.53,30.96,33.64,13.64,46.26,1011.73,2013.00,3268.20,2975.09,3419.14,600.17,584.48,19.98,0000 0000 0000 0000 000000
2018-06-04 07:26:56,0.00,0.33,0.00,27.59,31.00,33.65,13.55,46.28,1011.73,2012.99,3267.92,2974.92,3418.93,599.79,583.96,20.03,0000 0000 0000 0000 000000
2018-06-04 07:31:57,0.04,0.33,0.00,27.64,31.04,33.66,13.64,46.15,1011.75,2012.96,3267.15,2974.17,3418.14,600.22,584.25,20.09,0000 0000 0000 0000 000000
2018-06-04 07:36:58,-0.03,0.33,0.00,27.69,31.08,33.70,13.60,46.14,1011.76,2012.61,3266.75,2973.98,3417.82,600.07,584.08,20.14,0000 0000 0000 0000 000000
2018-06-04 07:42:00,0.01,0.33,0.00,27.75,31.12,33.71,13.59,46.23,1012.00,2012.23,3266.04,2973.48,3417.06,599.89,583.85,20.19,0000 0000 0000 0000 000000
2018-06-04 07:47:01,0.01,0.33,0.00,27.81,31.16,33.76,13.62,46.27,1012.16,2012.05,3265.54,2973.01,3416.70,600.01,583.88,20.24,0000 0000 0000 0000 000000
2018-06-04 07:52:02,0.03,0.33,0.00,27.87,31.20,33.78,13.61,46.21,1012.19,2012.00,3264.96,2972.51,3416.02,600.06,583.89,20.29,0000 0000 0000 0000 000000
2018-06-04 07:57:03,0.03,0.33,0.00,27.93,31.25,33.83,13.59,46.16,1012.12,2011.98,3264.22,2971.99,3415.34,600.02,583.76,20.34,0000 0000 0000 0000 000000
2018-06-04 08:02:04,-0.01,0.33,0.00,27.99,31.29,33.87,13.57,46.13,1012.14,2011.59,3263.74,2971.30,3414.68,599.76,583.29,20.39,0000 0000 0000 0000 000000
2018-06-04 08:07:05,-0.01,0.33,0.00,28.04,31.33,33.90,13.61,46.16,1012.22,2011.10,3263.04,2970.97,3414.03,599.76,583.31,20.44,0000 0000 0000 0000 000000
2018-06-04 08:12:07,0.04,0.33,0.00,28.09,31.38,33.95,13.60,46.11,1012.22,2011.01,3262.67,2970.31,3413.41,599.91,583.27,20.49,0000 0000 0000 0000 000000
2018-06-04 08:17:08,0.01,0.33,0.00,28.15,31.42,34.00,13.53,46.22,1012.23,2011.00,3261.99,2969.95,3412.87,600.04,583.46,20.54,0000 0000 0000 0000 000000
2018-06-04 08:22:09,0.04,0.33,0.00,28.21,31.47,34.04,13.60,46.08,1012.26,2010.95,3261.31,2969.23,3412.10,600.34,583.56,20.59,0000 0000 0000 0000 000000
2018-06-04 08:27:11,-0.05,0.33,0.00,28.26,31.51,34.10,13.48,46.08,1012.40,2010.32,3260.80,2968.93,3411.54,600.03,583.19,20.64,0000 0000 0000 0000 000000
2018-06-04 08:32:12,0.02,0.33,0.00,28.32,31.56,34.13,13.58,46.10,1012.58,2010.02,3260.04,2968.16,3410.94,600.21,583.33,20.69,0000 0000 0000 0000 000000
2018-06-04 08:37:13,0.03,0.34,0.00,28.38,31.61,34.17,13.58,46.13,1012.69,2010.00,3259.32,2967.90,3410.11,599.79,582.95,20.74,0000 0000 0000 0000 000000
2018-06-04 08:42:15,0.03,0.34,0.00,28.43,31.66,34.23,13.63,46.12,1012.71,2009.98,3258.81,2967.15,3409.68,600.12,583.19,20.79,0000 0000 0000 0000 000000
2018-06-04 08:47:16,-0.02,0.34,0.00,28.49,31.71,34.27,13.56,46.14,1012.72,2009.54,3258.03,2966.67,3408.93,599.98,582.81,20.84,0000 0000 0000 0000 000000
2018-06-04 08:52:17,0.01,0.34,0.00,28.49,31.76,34.32,13.63,46.15,1012.74,2009.13,3257.11,2966.02,3408.12,600.12,583.12,20.89,0000 0000 0000 0000 000000
2018-06-04 08:57:18,0.04,0.34,0.00,28.32,31.79,34.42,13.54,46.19,1012.81,2009.01,3256.50,2965.54,3407.59,599.53,582.91,20.94,0000 0000 0000 0000 000000
2018-06-04 09:02:20,0.01,0.34,0.00,28.06,31.82,34.57,13.66,45.98,1012.94,2008.98,3255.92,2965.01,3407.00,600.09,584.03,20.99,0000 0000 0000 0000 000000
2018-06-04 09:07:21,0.02,0.34,0.00,27.80,31.83,34.77,13.64,46.09,1013.13,2008.97,3255.12,2964.90,3406.52,599.78,584.30,21.04,0000 0000 0000 0000 000000
2018-06-04 09:12:23,0.03,0.34,0.00,27.65,31.85,34.87,13.74,46.13,1013.19,2008.97,3254.73,2964.42,3406.04,600.45,585.21,21.09,0000 0000 0000 0000 000000
2018-06-04 09:17:24,0.01,0.34,0.00,27.52,31.84,34.85,13.69,46.15,1013.20,2008.96,3254.04,2964.01,3405.99,599.79,584.88,21.14,0000 0000 0000 0000 000000
2018-06-04 09:22:25,-0.00,0.34,0.00,27.44,31.82,34.79,13.68,46.12,1013.20,2008.95,3253.95,2964.00,3405.86,599.92,585.20,21.19,0000 0000 0000 0000 000000
2018-06-04 09:27:26,0.02,0.34,0.00,27.39,31.81,34.68,13.73,46.18,1013.20,2008.97,3253.55,2964.00,3405.38,600.08,585.57,21.24,0000 0000 0000 0000 000000
2018-06-04 09:32:28,0.01,0.35,0.00,27.37,31.79,34.58,13.77,46.13,1013.20,2008.99,3253.06,2963.98,3405.05,600.39,585.68,21.29,0000 0000 0000 0000 000000
2018-06-04 09:37:29,0.00,0.35,0.00,27.37,31.76,34.49,13.79,46.23,1013.20,2008.99,3252.98,2963.91,3405.00,600.13,585.56,21.34,0000 0000 0000 0000 000000
2018-06-04 09:42:30,0.03,0.35,0.00,27.37,31.73,34.41,13.68,46.22,1013.20,2008.99,3252.55,2963.44,3404.99,600.00,585.28,21.39,0000 0000 0000 0000 000000
2018-06-04 09:47:31,0.00,0.35,0.00,27.39,31.71,34.36,13.70,46.19,1013.20,2008.99,3252.13,2963.33,3404.98,599.91,585.40,21.44,0000 0000 0000 0000 000000
2018-06-04 09:52:33,0.00,0.35,0.00,27.42,31.67,34.32,13.74,46.19,1013.20,2009.01,3252.01,2963.13,3404.96,600.21,585.50,21.49,0000 0000 0000 0000 000000
2018-06-04 09:57:34,0.01,0.35,0.00,27.45,31.65,34.24,13.78,46.16,1013.20,2009.01,3251.99,2963.06,3404.74,600.06,585.37,21.54,0000 0000 0000 0000 000000
2018-06-04 10:02:35,0.03,0.35,0.00,27.49,31.62,34.20,13.71,46.20,1013.22,2009.07,3251.62,2963.00,3404.16,600.05,585.15,21.59,0000 0000 0000 0000 000000
2018-06-04 10:07:37,0.03,0.35,0.00,27.49,31.59,34.19,13.69,46.22,1013.25,2009.29,3251.02,2963.00,3404.01,599.90,585.13,21.64,0000 0000 0000 0000 000000
2018-06-04 10:12:38,0.04,0.35,0.00,27.50,31.56,34.16,13.72,46.23,1013.29,2009.83,3251.00,2963.00,3404.00,599.98,585.10,21.69,0000 0000 0000 0000 000000
2018-06-04 10:17:40,0.01,0.35,0.00,27.50,31.54,34.14,13.60,46.18,1013.37,2009.98,3250.87,2962.99,3404.00,600.14,585.36,21.74,0000 0000 0000 0000 000000
2018-06-04 10:22:41,0.01,0.35,0.00,27.52,31.51,34.12,13.67,46.01,1013.61,2009.98,3250.28,2962.97,3403.99,600.01,585.38,21.79,0000 0000 0000 0000 000000
2018-06-04 10:27:42,0.00,0.35,0.00,27.54,31.49,34.10,13.62,46.06,1013.68,2009.99,3250.00,2962.92,3403.94,600.15,585.30,21.84,0000 0000 0000 0000 000000
2018-06-04 10:32:44,0.01,0.36,0.00,27.54,31.46,34.09,13.71,46.09,1013.69,2009.99,3249.97,2962.65,3403.59,600.16,585.49,21.89,0000 0000 0000 0000 000000
2018-06-04 10:37:45,0.03,0.36,0.00,27.55,31.44,34.04,13.74,46.04,1013.69,2009.99,3249.29,2962.15,3403.10,600.08,585.41,21.94,0000 0000 0000 0000 000000
2018-06-04 10:42:46,0.00,0.36,0.00,27.58,31.42,33.97,13.67,45.98,1013.70,2010.00,3249.00,2962.02,3403.00,600.02,585.19,21.99,0000 0000 0000 0000 000000
2018-06-04 10:47:48,0.00,0.36,0.00,27.59,31.40,33.92,13.59,46.11,1013.73,2010.03,3248.98,2962.00,3403.00,599.83,585.18,22.04,0000 0000 0000 0000 000000
2018-06-04 10:52:49,0.02,0.36,0.00,27.59,31.39,33.90,13.59,45.99,1013.75,2010.10,3248.64,2962.00,3402.98,599.91,585.25,22.09,0000 0000 0000 0000 000000
2018-06-04 10:57:50,0.02,0.36,0.00,27.58,31.37,33.92,13.66,45.99,1013.76,2010.30,3248.13,2962.00,3402.95,599.73,585.11,22.14,0000 0000 0000 0000 000000
2018-06-04 11:02:52,0.01,0.36,0.00,27.58,31.36,33.92,13.61,45.97,1013.84,2010.39,3248.00,2961.99,3402.38,599.82,585.25,22.19,0000 0000 0000 0000 000000
2018-06-04 11:07:53,0.05,0.36,0.00,27.59,31.35,33.91,13.62,46.00,1014.04,2010.64,3247.66,2961.72,3402.02,599.88,585.10,22.24,0000 0000 0000 0000 000000
2018-06-04 11:12:54,0.03,0.37,0.00,27.60,31.33,33.87,13.67,45.92,1014.11,2010.88,3247.10,2961.35,3402.00,600.01,585.47,22.29,0000 0000 0000 0000 000000
2018-06-04 11:17:56,0.01,0.37,0.00,27.61,31.32,33.88,13.66,46.06,1014.15,2010.92,3247.00,2961.02,3401.97,599.74,585.26,22.34,0000 0000 0000 0000 000000
2018-06-04 11:22:57,0.01,0.37,0.00,27.61,31.30,33.92,13.66,45.94,1014.17,2010.96,3246.85,2961.00,3401.67,599.81,585.35,22.39,0000 0000 0000 0000 000000
2018-06-04 11:27:58,0.02,0.37,0.00,27.62,31.29,33.96,13.61,45.96,1014.17,2010.97,3246.16,2961.00,3401.13,599.89,585.24,22.44,0000 0000 0000 0000 000000
2018-06-04 11:32:59,0.00,0.37,0.00,27.64,31.27,33.84,13.70,46.12,1014.17,2010.98,3246.00,2960.99,3401.00,600.25,585.68,22.49,0000 0000 0000 0000 000000
2018-06-04 11:38:00,0.01,0.37,0.00,27.66,31.27,33.80,13.80,46.15,1014.17,2010.98,3245.60,2960.81,3400.99,600.48,585.94,22.54,0000 0000 0000 0000 000000
2018-06-04 11:43:02,0.03,0.37,0.00,27.67,31.25,33.79,13.73,46.21,1014.21,2010.99,3245.03,2960.16,3400.73,600.08,585.49,22.59,0000 0000 0000 0000 000000
2018-06-04 11:48:03,0.01,0.37,0.00,27.67,31.25,33.77,13.62,46.10,1014.55,2010.99,3244.80,2960.00,3400.10,599.92,585.45,22.64,0000 0000 0000 0000 000000
2018-06-04 11:53:05,0.00,0.37,0.00,27.68,31.25,33.77,13.70,46.15,1014.64,2010.99,3244.11,2959.99,3399.99,600.25,585.87,22.69,0000 0000 0000 0000 000000
2018-06-04 11:58:06,0.00,0.37,0.00,27.68,31.23,33.77,13.68,46.19,1014.65,2011.00,3243.97,2959.95,3399.93,600.24,585.89,22.74,0000 0000 0000 0000 000000
2018-06-04 12:03:08,0.04,0.37,0.00,27.69,31.22,33.77,13.59,46.13,1014.70,2011.00,3243.34,2959.37,3399.20,600.06,585.70,22.79,0000 0000 0000 0000 000000
2018-06-04 12:08:09,0.03,0.38,0.00,27.70,31.22,33.75,13.64,46.27,1014.76,2011.00,3242.72,2958.91,3398.62,600.12,585.77,22.84,0000 0000 0000 0000 000000
2018-06-04 12:13:10,0.03,0.38,0.00,27.72,31.22,33.76,13.68,46.34,1014.96,2011.00,3241.97,2958.15,3398.01,599.97,585.68,22.89,0000 0000 0000 0000 000000
2018-06-04 12:18:12,0.06,0.38,0.00,27.72,31.20,33.74,13.66,46.18,1015.10,2011.00,3240.79,2957.67,3397.17,600.12,586.04,22.94,0000 0000 0000 0000 000000
2018-06-04 12:23:13,0.04,0.38,0.00,27.73,31.20,33.75,13.69,46.26,1015.13,2011.00,3239.65,2957.00,3396.22,600.00,586.02,22.99,0000 0000 0000 0000 000000
2018-06-04 12:28:14,0.01,0.38,0.00,27.74,31.20,33.74,13.65,46.27,1015.15,2011.00,3239.04,2956.89,3396.00,599.86,585.67,23.04,0000 0000 0000 0000 000000
2018-06-04 12:33:15,0.05,0.39,0.00,27.73,31.18,33.74,13.69,46.18,1015.15,2011.00,3238.42,2956.13,3395.47,600.37,585.94,23.09,0000 0000 0000 0000 000000
2018-06-04 12:38:17,0.07,0.39,0.00,27.73,31.17,33.73,13.61,46.18,1015.17,2011.00,3236.70,2955.24,3394.34,599.89,585.81,23.14,0000 0000 0000 0000 000000
2018-06-04 12:43:18,0.06,0.39,0.00,27.72,31.17,33.73,13.68,46.22,1015.22,2011.00,3235.30,2954.30,3393.32,600.52,586.34,23.19,0000 0000 0000 0000 000000
2018-06-04 12:48:20,0.01,0.39,0.00,27.72,31.16,33.72,13.65,46.22,1015.44,2011.00,3234.46,2953.99,3392.98,599.95,585.95,23.24,0000 0000 0000 0000 000000
2018-06-04 12:53:21,0.01,0.39,0.00,27.72,31.15,33.72,13.60,46.19,1015.63,2011.00,3234.00,2953.85,3392.57,599.87,586.06,23.29,0000 0000 0000 0000 000000